This is the latest recevied weather packets stored in our database for station/object W2OBX. If no packets are shown the sender has not sent any weather packets the latest 10 day(s).
| Time | Temp. | Humidity | Pressure | Rain* | Wind** | Luminosity | Snow |
|---|---|---|---|---|---|---|---|
| 1777670082 | 20° C | 42% | 1012.6 hPa | 0 mm | - | 75 W/m² | - |
| 1777669779 | 20° C | 40% | 1012.6 hPa | 0 mm | - | 86 W/m² | - |
| 1777669476 | 20° C | 38% | 1012.6 hPa | 0 mm | - | 89 W/m² | - |
| 1777669173 | 20° C | 38% | 1012.4 hPa | 0 mm | - | 95 W/m² | - |
| 1777668869 | 20.56° C | 38% | 1012.7 hPa | 0 mm | - | 164 W/m² | - |
| 1777668567 | 20.56° C | 42% | 1012.7 hPa | 0 mm | - | 138 W/m² | - |
| 1777668262 | 20.56° C | 40% | 1012.7 hPa | 0 mm | - | 179 W/m² | - |
| 1777667959 | 20.56° C | 40% | 1013 hPa | 0 mm | - | 194 W/m² | - |
| 1777667656 | 20.56° C | 41% | 1013 hPa | 0 mm | - | 188 W/m² | - |
| 1777667354 | 20.56° C | 40% | 1013 hPa | 0 mm | - | 106 W/m² | - |
| 1777667050 | 20.56° C | 39% | 1013 hPa | 0 mm | - | 114 W/m² | - |
| 1777666747 | 20.56° C | 40% | 1013 hPa | 0 mm | - | 111 W/m² | - |
| 1777666444 | 20.56° C | 36% | 1013.1 hPa | 0 mm | - | 113 W/m² | - |
| 1777666140 | 20.56° C | 38% | 1013.2 hPa | 0 mm | - | 132 W/m² | - |
| 1777665837 | 20° C | 37% | 1013.2 hPa | 0 mm | - | 120 W/m² | - |
| 1777665535 | 20.56° C | 40% | 1013.3 hPa | 0 mm | - | 130 W/m² | - |
| 1777665231 | 20° C | 35% | 1013.2 hPa | 0 mm | - | 195 W/m² | - |
| 1777664927 | 20.56° C | 41% | 1013.2 hPa | 0 mm | - | 195 W/m² | - |
| 1777664623 | 20.56° C | 37% | 1013.4 hPa | 0 mm | - | 184 W/m² | - |
| 1777664319 | 20° C | 36% | 1013.4 hPa | 0 mm | - | 153 W/m² | - |
| 1777664018 | 20° C | 37% | 1013.5 hPa | 0 mm | - | 204 W/m² | - |
| 1777663715 | 20° C | 36% | 1013.4 hPa | 0 mm | - | 138 W/m² | - |
| 1777663412 | 20.56° C | 37% | 1013.3 hPa | 0 mm | - | 205 W/m² | - |
| 1777663109 | 20.56° C | 39% | 1013.4 hPa | 0 mm | - | 263 W/m² | - |
| 1777662807 | 20° C | 35% | 1013.5 hPa | 0 mm | - | 201 W/m² | - |
* Rain latest hour (hover to see other rain measurements)
** Current wind speed in m/s (hover to see current wind gust speed)